Location: SAPM � Hemmingford
(45.0500°N, 73.5833°W)
Time: 02:54:26
(UTC-04:00)

Daily predictions for brighter satellites

Satellite Brightness Start Highest point End
(mag) Time Altitude Azimuth Time Altitude Azimuth Time Altitude Azimuth
Cosmos 1400 Rocket 3.9 00:05:57 32° E 00:06:11 32° E 00:09:54 10° NNE
Cosmos 304 Rocket 4.2 00:05:44 10° NNW 00:10:23 50° WSW 00:11:32 41° SSW
Cosmos 1455 3.4 00:08:47 10° NNW 00:12:16 32° W 00:12:57 30° WSW
Cosmos 1666 Rocket 3.6 00:14:40 52° SSW 00:15:44 81° W 00:20:13 10° N
Cosmos 1844 Rocket 3.3 00:16:14 35° SE 00:17:17 38° ESE 00:22:25 10° NE
Cosmos 1943 4.5 00:14:06 10° NW 00:18:49 28° WSW 00:20:39 23° SW
Cosmos 1862 Rocket 4.0 00:17:43 10° N 00:21:59 50° ENE 00:22:52 43° ESE
Cosmos 967 Rocket 4.4 00:17:22 10° NW 00:23:46 81° WSW 00:26:23 38° SSE
Cosmos 1933 Rocket 4.0 00:24:43 44° ESE 00:25:16 47° E 00:29:28 10° NNE
Tsikada Rocket 4.0 00:23:22 39° S 00:25:58 79° E 00:32:20 10° N
Lacrosse 5 3.7 00:26:40 10° W 00:29:38 16° WSW 00:29:38 16° WSW
CZ-2C R/B 3.4 00:28:02 41° S 00:30:05 70° WSW 00:35:49 10° NNW
IKONOS-2 4.4 00:33:36 61° SSW 00:34:13 74° WSW 00:38:30 10° NNW
Cosmos 1633 Rocket 3.3 00:33:49 47° SW 00:34:45 61° W 00:39:05 10° N
CZ-4C R/B 3.7 00:37:23 41° ENE 00:37:23 41° ENE 00:40:29 10° N
Cosmos 1892 3.8 00:41:17 33° E 00:41:23 33° E 00:44:55 10° NNE
Cosmos 2242 Rocket 3.9 00:41:57 10° NNW 00:46:28 59° W 00:47:18 50° SW
SAR-Lupe-2 4.4 00:47:58 40° E 00:48:18 41° ENE 00:51:42 10° N
SL-27 R/B 4.1 00:48:37 10° N 00:51:28 25° ENE 00:51:59 24° ENE
Cosmos 1703 Rocket 4.4 00:48:51 10° N 00:53:08 42° ENE 00:54:18 35° ESE
CZ-2C R/B 3.1 00:48:28 10° N 00:53:41 54° WNW 00:55:50 33° SW
Cosmos 968 Rocket 3.5 00:53:51 43° SW 00:55:35 76° WNW 01:00:54 10° NNE
Cosmos 1470 Rocket 3.8 01:01:55 50° SW 01:02:45 60° W 01:07:10 10° N
Meteor 1-26 Rocket 4.1 00:57:28 10° N 01:03:03 89° E 01:04:49 45° S
Cosmos 2278 Rocket 2.9 01:03:25 33° SE 01:04:43 38° ESE 01:09:54 10° NE
BREEZE-M DEB 3.2 00:56:40 10° WSW 01:05:35 87° NNW 01:08:28 10° ENE
H-2A R/B 3.7 01:02:17 10° NNE 01:06:21 32° E 01:07:06 30° ESE
Cosmos 1844 3.6 01:07:55 46° S 01:09:39 76° ESE 01:15:16 10° NNE
Cosmos 1833 Rocket 4.4 01:06:25 10° N 01:11:17 28° NE 01:16:06 10° ESE
Cosmos 2084 Rocket 3.4 01:08:07 10° NW 01:11:30 56° W 01:11:30 56° W
Cosmos 1538 Rocket 4.1 01:06:36 10° NNW 01:11:56 64° WSW 01:13:18 47° SSW
SL-24 R/B - RUBIN 2 3.9 01:09:05 10° NW 01:14:35 66° WSW 01:15:39 51° S
Cosmos 1933 4.2 01:12:09 10° NNW 01:15:57 37° W 01:16:12 36° WSW
COSMOS 2406 3.5 01:12:13 10° NW 01:17:41 50° WSW 01:19:02 41° SSW
Cosmos 1869 Rocket 4.0 01:17:09 44° SE 01:17:53 49° E 01:22:06 10° NNE
Okean 1-7 3.5 01:16:00 10° N 01:20:15 54° ENE 01:21:18 43° SE
Cosmos 923 Rocket 4.1 01:15:22 10° NNW 01:20:36 72° ENE 01:22:35 38° SE
Cosmos 2279 Rocket 4.0 01:15:18 10° N 01:21:35 76° E 01:24:20 36° SSE
ALOS 2 4.2 01:23:03 21° WSW 01:23:29 21° W 01:26:51 10° NW
CZ-4C R/B 2.4 01:22:53 31° WSW 01:25:33 67° NW 01:31:40 10° NE
Meteor 2-10 Rocket 4.3 01:20:39 10° NNW 01:25:37 41° W 01:27:04 34° SW
Cosmos 1689 Rocket 2.6 01:27:08 58° NNW 01:27:08 58° NNW 01:29:46 10° NNW
Cosmos 2263 Rocket 4.5 01:23:03 10° W 01:26:50 18° NW 01:30:40 10° N
Cosmos 1461 3.7 01:27:08 34° ESE 01:27:08 34° ESE 01:30:31 10° NE
CZ-4B R/B 1.7 01:31:59 58° WNW 01:31:59 58° WNW 01:35:15 10° NNW
Cosmos 1315 Rocket 3.3 01:34:45 42° W 01:35:14 44° WNW 01:39:02 10° N
Cosmos 2082 Rocket 3.2 01:30:54 10° NNW 01:36:15 43° ENE 01:41:12 12° SE
Landsat 5 3.6 01:36:20 55° SW 01:36:52 61° WSW 01:41:01 10° NNW
Meteor 2-3 Rocket 3.9 01:36:55 39° SSW 01:39:06 69° WNW 01:44:55 10° N
PSLV R/B 4.0 01:39:11 10° NNE 01:43:29 53° E 01:44:33 42° SE
ATLAS 3B R/B 4.1 01:41:11 21° SE 01:44:14 27° ESE 01:50:07 10° ENE
Cosmos 1825 2.6 01:46:16 46° ESE 01:46:46 50° E 01:50:28 10° NNE
Cosmos 2112 Rocket 4.0 01:45:29 10° NNW 01:50:47 86° ENE 01:53:06 35° SSE
Cosmos 1782 2.7 01:49:20 10° N 01:53:24 86° W 01:54:05 61° S
Cosmos 44 4.3 01:53:36 28° SE 01:54:23 29° ESE 01:58:18 10° NE
Meteor 2-6 Rocket 4.2 01:51:02 10° N 01:56:35 86° E 01:59:08 35° SSE
Meteor 1-27 Rocket 4.2 01:51:22 10° N 01:57:16 60° ENE 02:00:55 24° SSE
Abrixas 3.3 01:58:40 44° N 01:58:40 44° N 02:01:08 10° ENE
Cosmos 1408 2.4 01:59:38 70° SSE 01:59:58 80° E 02:03:36 10° N
Cosmos 1844 Rocket 3.8 01:57:53 19° WSW 02:01:11 35° NW 02:06:19 10° NNE
Timation 1 Rocket 4.3 01:59:59 37° SSW 02:02:29 82° ESE 02:08:29 10° NNE
Cosmos 1680 Rocket 3.5 01:58:25 10° NNW 02:03:39 64° WSW 02:05:27 40° S
Cosmos 44 Rocket 3.8 02:02:28 36° SSE 02:03:40 44° ESE 02:08:13 10° NE
Cosmos 1346 Rocket 3.7 02:05:56 10° NNW 02:09:25 32° W 02:09:34 32° W
Helios 1A Rocket 3.3 02:05:55 10° NNE 02:09:59 56° E 02:11:08 40° SSE
Aureole 1 Rocket 4.3 02:03:26 10° NNW 02:10:08 77° WSW 02:15:28 24° S
PSLV R/B 4.2 02:08:59 34° SE 02:10:39 64° ENE 02:14:47 10° N
Cosmos 1674 Rocket 4.4 02:07:01 10° N 02:11:20 46° ENE 02:13:45 23° SE
Cosmos 1937 Rocket 4.4 02:09:42 26° SSE 02:11:54 38° ESE 02:16:38 10° NE
Resurs 1-4 Rocket 4.1 02:11:10 10° NE 02:15:05 21° E 02:18:59 10° SE
Cosmos 2221 Rocket 4.4 02:14:18 10° NNW 02:18:20 34° W 02:19:08 32° WSW
Cosmos 1092 Rocket 4.1 02:16:54 28° S 02:20:22 72° E 02:26:38 10° NNE
Cosmos 1898 Rocket 3.6 02:22:53 34° S 02:25:07 69° ESE 02:30:22 10° NNE
SL-27 R/B 4.4 02:24:07 10° NW 02:25:39 17° W 02:25:39 17° W
Cosmos 1607 3.9 02:24:03 32° SSW 02:27:05 74° ESE 02:33:22 10° NE
SeaSat 1 2.4 02:26:04 23° SSE 02:29:12 84° WSW 02:34:11 10° NNW
CZ-2D R/B 3.7 02:25:56 10° NE 02:30:30 28° E 02:34:35 12° SSE
Cosmos 2026 Rocket 4.5 02:29:06 20° SSE 02:33:09 53° E 02:39:02 10° NNE
USA 238 DEB 4.5 02:31:18 22° S 02:35:11 41° ESE 02:41:39 10° NE
USA 238 4.5 02:31:24 22° S 02:35:18 41° ESE 02:41:45 10° NE
Cosmos 1606 3.7 02:32:09 10° NNW 02:35:35 30° W 02:36:00 29° WSW
ARIANE 5 R/B 4.1 02:32:37 10° NE 02:36:49 26° E 02:40:37 12° SSE
H-2A R/B 4.0 02:37:53 10° N 02:41:47 29° WNW 02:43:42 21° WSW
Cosmos 1340 2.6 02:38:18 10° NNW 02:42:05 69° W 02:43:13 41° SSW
SL-08 R/B 3.4 02:39:19 22° SSE 02:42:30 83° ENE 02:47:19 10° NNW
CBERS-1 4.2 02:39:16 10° NNE 02:44:24 69° ESE 02:47:21 26° S
Genesis I 4.3 02:46:04 23° W 02:47:57 37° NW 02:51:38 10° NNE
Cosmos 2278 Rocket 3.2 02:45:15 18° WSW 02:48:49 36° NW 02:54:02 10° NNE
IRS-P3 4.1 02:48:31 10° NNE 02:53:53 86° WNW 02:57:02 26° SSW
Cosmos 858 Rocket 4.5 02:51:18 29° SSW 02:54:01 79° WNW 02:59:15 10° NNE
Cosmos 1833 Rocket 2.9 02:50:01 10° NW 02:55:30 52° WSW 02:58:54 22° S
CZ-3B DEB 4.1 02:42:48 10° NW 02:56:04 84° SW 03:07:31 10° SE
NPP 3.6 02:50:39 10° NNE 02:56:04 88° WNW 02:59:20 25° SSW
Cosmos 2369 Rocket 3.9 02:54:45 10° SSE 02:59:11 25° ESE 03:03:39 10° NE
Cosmos 1655 Rocket 4.2 02:55:50 18° S 03:00:40 69° E 03:06:53 10° NNE
GP-B 3.1 02:57:41 10° N 03:02:07 69° W 03:04:28 27° SSW
COSMOS 2487 3.0 02:59:18 10° NW 03:02:39 40° WSW 03:03:26 34° SW
Cosmos 1461 4.4 03:03:33 15° W 03:06:05 26° NW 03:09:31 10° NNE
SL-16 R/B 2.6 03:01:55 10° SSE 03:08:09 86° ENE 03:14:26 10° NNW
Cosmos 2297 4.1 03:04:57 22° SW 03:08:32 53° WNW 03:14:06 10° NNE
UNK 3.9 03:04:25 13° SSE 03:08:39 79° ENE 03:13:22 10° N
Cosmos 1437 3.5 03:07:08 10° N 03:10:18 50° ENE 03:12:58 14° SSE
Cosmos 2298 Rocket 4.2 03:07:34 24° SW 03:10:45 62° WNW 03:16:02 10° NNE
USA 267 4.2 03:05:23 10° ENE 03:11:17 35° SE 03:15:50 16° S
Cosmos 1975 Rocket 3.4 03:10:05 10° N 03:14:25 66° E 03:18:42 10° SSE
Cosmos 1812 3.0 03:11:13 10° N 03:15:05 67° E 03:18:29 13° SSE
CZ-4C R/B 4.5 03:11:03 10° WNW 03:15:22 21° NNW 03:20:08 10° NNE
Exosat Rocket 4.4 03:12:44 10° NW 03:17:59 43° WSW 03:24:04 13° S
ADEOS Rocket 3.5 03:11:28 10° NNE 03:19:13 83° WNW 03:25:04 17° SSW
Cosmos 2082 Rocket 3.0 03:15:18 10° NW 03:20:10 31° WSW 03:22:59 20° SSW
Cosmos 1733 Rocket 4.3 03:19:01 19° WSW 03:21:09 29° WNW 03:24:58 10° NNW
Cosmos 2150 Rocket 4.4 03:19:04 21° SW 03:22:40 56° WNW 03:28:02 10° NNE
Cosmos 1825 4.5 03:21:09 11° W 03:22:41 13° WNW 03:24:26 10° NW
Meteor 1-25 Rocket 4.5 03:19:09 14° S 03:24:00 68° E 03:29:37 10° NNE
Meteor 1-14 Rocket 4.4 03:20:21 17° S 03:25:06 89° E 03:31:08 10° N
USA 161 4.2 03:31:24 10° ESE 03:32:59 16° ENE 03:34:40 10° NNE
Abrixas 3.5 03:30:56 10° WNW 03:33:33 41° N 03:36:11 10° E
ATLAS 3B R/B 3.0 03:28:26 17° SW 03:34:27 74° NW 03:41:37 10° NE
Cosmos 44 4.1 03:32:00 15° WSW 03:35:28 38° NW 03:39:40 10° NNE
S3M 4.0 03:32:37 10° NNW 03:38:49 75° W 03:44:56 10° S
Sich 1 Rocket 4.3 03:38:43 18° SW 03:41:47 42° WNW 03:46:10 10° N
ADEOS 3.6 03:38:14 10° NNE 03:43:29 84° WNW 03:48:13 13° SSW
MOZ.5/SAFIR/RUBIN 5/SL-8 3.9 03:40:55 10° SSE 03:45:40 81° ENE 03:50:26 10° N
Cosmos 1048 Rocket 4.2 03:40:22 10° NNW 03:45:48 84° ENE 03:51:11 10° SSE
USA 234 4.5 03:41:01 10° E 03:47:10 45° NNE 03:53:19 10° NW
Resurs 1-4 Rocket 2.4 03:50:04 10° N 03:55:18 57° WNW 04:00:04 12° SSW
Okean 1 3.3 03:52:33 10° NNW 03:56:38 72° W 04:00:40 10° S
Cosmos 1633 2.6 03:54:45 10° S 03:58:24 81° E 04:02:03 10° N
MOS 1 Rocket 3.6 03:56:52 10° NNE 04:02:19 86° WNW 04:07:31 10° SSW
BREEZE M DEB (TANK) 3.4 04:00:26 10° WNW 04:02:35 32° N 04:04:55 10° ENE
BREEZE-M DEB (TANK) 3.4 03:56:48 12° SW 04:03:38 42° SSE 04:06:32 10° E
BREEZE M DEB (TANK) 3.4 04:04:04 10° S 04:05:33 17° SE 04:07:18 10° E
Meteor 1-13 Rocket 4.5 04:00:35 10° N 04:06:06 74° ENE 04:11:40 10° SSE
BREEZE-M DEB (TANK) 2.5 04:04:04 14° SW 04:06:20 70° SSE 04:13:15 10° ENE
SeaSat 1 4.3 04:05:50 10° WSW 04:07:22 12° W 04:09:06 10° W
BREEZE-M R/B 3.0 04:01:28 10° WNW 04:07:42 70° SSW 04:10:55 10° SE
Okean 2 Rocket 3.5 04:05:26 11° SSW 04:09:30 48° WNW 04:13:47 10° N
GRACE-1 3.7 04:07:49 10° S 04:10:30 77° W 04:13:13 10° N
CZ-2D R/B 2.7 04:05:39 10° N 04:10:42 44° WNW 04:15:49 10° SW
GRACE-2 3.7 04:08:15 10° S 04:10:56 77° W 04:13:39 10° N
Meteor 1-11 Rocket 4.3 04:06:50 10° S 04:12:25 60° E 04:18:11 10° NNE
ARIANE 5 R/B 3.2 04:11:24 10° N 04:16:03 40° WNW 04:20:42 10° SW
Cosmos 1441 Rocket 3.3 04:12:46 10° NNW 04:16:47 82° WSW 04:20:46 10° S
Cosmos 1125 Rocket 3.7 04:11:45 10° SSW 04:17:00 64° WNW 04:22:17 10° NNE
CZ-2D R/B 3.7 04:15:32 10° N 04:19:54 66° WNW 04:24:18 10° SSW
UNKNOWN OBJECT B 3.2 04:22:27 10° N 04:26:02 43° WNW 04:29:34 10° SW
USA 238 DEB 4.3 04:19:16 10° WSW 04:26:02 51° NW 04:32:52 10° NNE
USA 238 4.3 04:19:21 10° WSW 04:26:08 51° NW 04:32:59 10° NNE
Cosmos 1300 Rocket 3.8 04:24:16 10° S 04:28:41 73° E 04:33:09 10° NNE
